Showing default

CARB, 64899

Orbit data source: Space-Track

CARB, 64899 is a payload satellite owned by CNES (FR) in SSO that was launched on Sat, 26 Jul 2025 UTC via a VEGA C launch vehicle from the French Guiana (FRGUI). Payload-class satellites include a variety of spacecraft equipped with specific instruments for various scientific and technological missions. These include communications satellites like Starlink; space stations such as the ISS; scientific satellites like the Hubble; Earth observation satellites from companies like Planet Labs, Umbra, and HawkEye 360; GPS; miniature CubeSats for education and research; and military/defense satellites.

Loading next visibility...
Identifier
64899, 2025-156A
Orbit
SSO
Country
Flag of FRFR
Related business
None
Manufacturer
THALUK
Mission
Operational spacecraft
Bus & Motor
MYRIADE, Unknown motor
Mass
180 kg wet, 180 kg dry
Launch date (UTC)
2025-07-26 (1 month ago)
Launch vehicle
VEGA C
Launch site
French Guiana (FRGUI)
Object type
Payload
Rocket body
Debris
Shape & HBR
Unknown
Radar Cross Section
Medium (>0.1 m² and <1 m²)

Expand to show TLE details & history
Last TLE update: 21 hours ago

TLE from 21 hours ago
0 CARB
1 64899U 25156A   25242.16647673  .00000999  00000-0  16754-3 0  9993
2 64899  98.0121 319.1558 0017743 119.9864 240.3107 14.71783559  5159
Epoch: 2025-08-30T03:59Z
TLE epoch observation values (Epoch: 2025-08-30T03:59:43.589Z)
Latitude
-0°
Longitude
-79.38049°
Altitude
664.586 km
Speed
7.522 km/s
True Right ascension
21h 16m 37s
True Declination
0° 00' 00"
Sunlit
Object was in full shadow at epoch
Visualization orbit readout
Latitude
Unknown
Longitude
Unknown
Altitude
Unknown
Speed
Unknown
Apparent Right ascension
Unknown
Apparent Declination
Unknown
Sunlit
N/A
Visualization observer readout
Local Sidereal Time
16:14:48
Azimuth
Unknown
Elevation
Unknown
Doppler factor
Unknown
Orbital elements
Apogee altitude
664.911 km
Perigee altitude
639.963 km
Semi-major axis
7,030.574 km
Eccentricity
0.00177
Inclination
98.0121°
RAAN
319.1558°
Arg. of periapsis
119.9864°
True anomaly
240.13427°
Mean anomaly
240.3107°
Eccentric anomaly
240.22246°
Mean motion
3.68177 °/min
Orbital period
97.78 mins
BSTAR
0.00016754
Loading maneuver chart data...
Computing Atmospheric mass density...
Loading historical data...
Loading historical data...
Loading historical data...
Loading historical data...
Loading historical data...
Loading historical data...
Loading historical data...
Other satellites on launch #156 in the year 2025 (2025-07-26 UTC)

Documentation

Showing up to 5 results
|